Time,TemperatureF,DewpointF,PressureIn,WindDirection,WindDirectionDegrees,WindSpeedMPH,WindSpeedGustMPH,Humidity,HourlyPrecipIn,Conditions,Clouds,dailyrainin,SolarRadiationWatts/m^2,SoftwareType,DateUTC
2013-11-11 00:08:00,49.5,31.0,30.12,NNE,21,2.0,-999.0,50,-99.99,,,0.00,0,weatherlink.com 1.10,2013-11-11 06:08:00,
2013-11-11 00:19:00,49.5,31.0,30.12,NNE,33,2.0,-999.0,50,-99.99,,,0.00,0,weatherlink.com 1.10,2013-11-11 06:19:00,
2013-11-11 00:34:00,49.5,31.0,30.11,NNE,21,1.0,-999.0,50,-99.99,,,0.00,0,weatherlink.com 1.10,2013-11-11 06:34:00,
2013-11-11 00:49:00,49.5,32.0,30.10,NNE,31,3.0,-999.0,51,-99.99,,,0.00,0,weatherlink.com 1.10,2013-11-11 06:49:00,
2013-11-11 01:04:00,49.2,32.0,30.09,NE,35,3.0,-999.0,51,-99.99,,,0.00,0,weatherlink.com 1.10,2013-11-11 07:04:00,
2013-11-11 01:19:00,48.6,32.0,30.09,NNE,17,1.0,-999.0,53,-99.99,,,0.00,0,weatherlink.com 1.10,2013-11-11 07:19:00,
2013-11-11 01:34:00,48.3,32.0,30.10,NNE,19,0.0,-999.0,53,-99.99,,,0.00,0,weatherlink.com 1.10,2013-11-11 07:34:00,
2013-11-11 01:49:00,47.6,32.0,30.09,NNE,21,1.0,-999.0,55,-99.99,,,0.00,0,weatherlink.com 1.10,2013-11-11 07:49:00,
2013-11-11 02:04:00,47.3,33.0,30.09,NE,44,2.0,-999.0,57,-99.99,,,0.00,0,weatherlink.com 1.10,2013-11-11 08:04:00,
2013-11-11 02:27:00,47.6,33.0,30.08,NE,44,0.0,-999.0,57,-99.99,,,0.00,0,weatherlink.com 1.10,2013-11-11 08:27:00,
2013-11-11 02:34:00,47.6,33.0,30.08,NE,42,1.0,-999.0,57,-99.99,,,0.00,0,weatherlink.com 1.10,2013-11-11 08:34:00,
2013-11-11 02:49:00,47.7,33.0,30.07,NNE,30,1.0,-999.0,58,-99.99,,,0.00,0,weatherlink.com 1.10,2013-11-11 08:49:00,
2013-11-11 03:04:00,47.6,34.0,30.07,NE,36,2.0,-999.0,59,-99.99,,,0.00,0,weatherlink.com 1.10,2013-11-11 09:04:00,
2013-11-11 03:19:00,47.7,34.0,30.07,NE,37,2.0,-999.0,59,-99.99,,,0.00,0,weatherlink.com 1.10,2013-11-11 09:19:00,
2013-11-11 03:36:00,48.0,35.0,30.07,NE,50,5.0,-999.0,60,-99.99,,,0.00,0,weatherlink.com 1.10,2013-11-11 09:36:00,
2013-11-11 03:49:00,48.0,35.0,30.07,NE,42,1.0,-999.0,61,-99.99,,,0.00,0,weatherlink.com 1.10,2013-11-11 09:49:00,
2013-11-11 04:04:00,48.5,36.0,30.07,ENE,59,0.0,-999.0,62,-99.99,,,0.00,0,weatherlink.com 1.10,2013-11-11 10:04:00,
2013-11-11 04:19:00,48.8,36.0,30.06,NE,40,3.0,-999.0,62,-99.99,,,0.00,0,weatherlink.com 1.10,2013-11-11 10:19:00,
2013-11-11 04:34:00,48.9,37.0,30.05,NNE,24,1.0,-999.0,64,-99.99,,,0.00,0,weatherlink.com 1.10,2013-11-11 10:34:00,
2013-11-11 04:49:00,49.4,38.0,30.05,ENE,72,1.0,-999.0,65,-99.99,,,0.00,0,weatherlink.com 1.10,2013-11-11 10:49:00,
2013-11-11 05:04:00,49.5,38.0,30.05,ENE,62,2.0,-999.0,66,-99.99,,,0.00,0,weatherlink.com 1.10,2013-11-11 11:04:00,
2013-11-11 05:19:00,49.5,39.0,30.06,ENE,76,2.0,-999.0,67,-99.99,,,0.00,0,weatherlink.com 1.10,2013-11-11 11:19:00,
2013-11-11 05:34:00,49.1,39.0,30.05,ENE,59,2.0,-999.0,68,-99.99,,,0.00,0,weatherlink.com 1.10,2013-11-11 11:34:00,
2013-11-11 05:56:00,49.2,40.0,30.06,East,86,2.0,-999.0,70,-99.99,,,0.00,0,weatherlink.com 1.10,2013-11-11 11:56:00,
2013-11-11 06:04:00,49.2,40.0,30.07,East,94,1.0,-999.0,71,-99.99,,,0.00,0,weatherlink.com 1.10,2013-11-11 12:04:00,
2013-11-11 06:19:00,49.1,40.0,30.07,East,90,0.0,-999.0,72,-99.99,,,0.00,0,weatherlink.com 1.10,2013-11-11 12:19:00,
2013-11-11 06:34:00,48.8,40.0,30.08,SE,138,3.0,-999.0,71,-99.99,,,0.00,0,weatherlink.com 1.10,2013-11-11 12:34:00,
2013-11-11 06:49:00,47.0,38.0,30.10,SSE,163,1.0,-999.0,70,-99.99,,,0.00,0,weatherlink.com 1.10,2013-11-11 12:49:00,
2013-11-11 07:07:00,46.0,37.0,30.10,South,174,0.0,-999.0,71,-99.99,,,0.00,0,weatherlink.com 1.10,2013-11-11 13:07:00,
2013-11-11 07:20:00,45.7,36.0,30.12,South,173,1.0,-999.0,70,-99.99,,,0.00,5,weatherlink.com 1.10,2013-11-11 13:20:00,
2013-11-11 07:35:00,44.5,34.0,30.13,South,173,0.0,-999.0,66,-99.99,,,0.00,9,weatherlink.com 1.10,2013-11-11 13:35:00,
2013-11-11 07:50:00,43.3,33.0,30.13,South,173,2.0,-999.0,67,-99.99,,,0.00,21,weatherlink.com 1.10,2013-11-11 13:50:00,
2013-11-11 08:05:00,42.9,33.0,30.15,South,175,4.0,-999.0,68,-99.99,,,0.00,16,weatherlink.com 1.10,2013-11-11 14:05:00,
2013-11-11 08:20:00,42.5,32.0,30.17,South,170,2.0,-999.0,67,-99.99,,,0.00,30,weatherlink.com 1.10,2013-11-11 14:20:00,
2013-11-11 08:35:00,42.1,32.0,30.18,South,177,10.0,-999.0,67,-99.99,,,0.00,28,weatherlink.com 1.10,2013-11-11 14:35:00,
2013-11-11 08:50:00,41.5,32.0,30.21,SSE,168,11.0,-999.0,68,-99.99,,,0.00,39,weatherlink.com 1.10,2013-11-11 14:50:00,
2013-11-11 09:05:00,40.6,32.0,30.22,SSE,160,1.0,-999.0,70,-99.99,,,0.00,62,weatherlink.com 1.10,2013-11-11 15:05:00,
2013-11-11 09:27:00,40.3,32.0,30.22,South,177,2.0,-999.0,71,-99.99,,,0.00,62,weatherlink.com 1.10,2013-11-11 15:27:00,
2013-11-11 09:35:00,40.2,31.0,30.22,South,178,10.0,-999.0,71,-99.99,,,0.00,90,weatherlink.com 1.10,2013-11-11 15:35:00,
2013-11-11 09:50:00,40.5,32.0,30.23,SSE,157,1.0,-999.0,71,-99.99,,,0.00,65,weatherlink.com 1.10,2013-11-11 15:50:00,
2013-11-11 10:05:00,40.2,32.0,30.24,SSW,198,0.0,-999.0,72,-99.99,,,0.00,40,weatherlink.com 1.10,2013-11-11 16:05:00,
2013-11-11 10:20:00,39.8,31.0,30.25,South,190,6.0,-999.0,71,-99.99,,,0.00,56,weatherlink.com 1.10,2013-11-11 16:20:00,
2013-11-11 10:38:00,39.9,31.0,30.25,South,171,0.0,-999.0,70,-99.99,,,0.00,123,weatherlink.com 1.10,2013-11-11 16:38:00,
2013-11-11 10:50:00,40.2,31.0,30.27,South,184,4.0,-999.0,70,-99.99,,,0.00,51,weatherlink.com 1.10,2013-11-11 16:50:00,
2013-11-11 11:05:00,39.5,32.0,30.27,SSE,167,0.0,-999.0,73,-99.99,,,0.00,67,weatherlink.com 1.10,2013-11-11 17:05:00,
2013-11-11 11:20:00,38.8,31.0,30.27,SSE,155,1.0,-999.0,73,-99.99,,,0.00,139,weatherlink.com 1.10,2013-11-11 17:20:00,
2013-11-11 11:35:00,38.2,29.0,30.28,SSE,160,11.0,-999.0,70,-99.99,,,0.00,127,weatherlink.com 1.10,2013-11-11 17:35:00,
2013-11-11 11:50:00,36.8,27.0,30.30,South,180,5.0,-999.0,69,-99.99,,,0.00,46,weatherlink.com 1.10,2013-11-11 17:50:00,
2013-11-11 12:05:00,35.8,27.0,30.30,SSW,198,12.0,-999.0,69,-99.99,,,0.00,86,weatherlink.com 1.10,2013-11-11 18:05:00,
2013-11-11 12:20:00,35.5,27.0,30.31,South,182,3.0,-999.0,70,-99.99,,,0.00,123,weatherlink.com 1.10,2013-11-11 18:20:00,
2013-11-11 12:35:00,35.6,27.0,30.31,South,191,12.0,-999.0,70,-99.99,,,0.00,90,weatherlink.com 1.10,2013-11-11 18:35:00,
2013-11-11 12:57:00,35.3,26.0,30.31,South,171,4.0,-999.0,68,-99.99,,,0.00,95,weatherlink.com 1.10,2013-11-11 18:57:00,
2013-11-11 13:05:00,34.7,25.0,30.32,SSE,150,7.0,-999.0,68,-99.99,,,0.00,91,weatherlink.com 1.10,2013-11-11 19:05:00,
2013-11-11 13:20:00,32.8,25.0,30.34,SSE,148,9.0,-999.0,73,-99.99,,,0.00,74,weatherlink.com 1.10,2013-11-11 19:20:00,
2013-11-11 13:36:00,30.9,26.0,30.35,South,171,6.0,-999.0,83,-99.99,,,0.00,46,weatherlink.com 1.10,2013-11-11 19:36:00,
2013-11-11 13:51:00,30.0,25.0,30.36,SSE,160,4.0,-999.0,83,-99.99,,,0.00,35,weatherlink.com 1.10,2013-11-11 19:51:00,
2013-11-11 14:09:00,29.3,24.0,30.37,SE,144,4.0,-999.0,81,-99.99,,,0.00,40,weatherlink.com 1.10,2013-11-11 20:09:00,
2013-11-11 14:21:00,28.7,24.0,30.39,South,171,2.0,-999.0,81,-99.99,,,0.00,30,weatherlink.com 1.10,2013-11-11 20:21:00,
2013-11-11 14:36:00,27.3,23.0,30.39,South,177,3.0,-999.0,85,-99.99,,,0.00,14,weatherlink.com 1.10,2013-11-11 20:36:00,
2013-11-11 14:51:00,26.7,23.0,30.41,SSE,159,3.0,-999.0,87,-99.99,,,0.00,7,weatherlink.com 1.10,2013-11-11 20:51:00,
2013-11-11 15:06:00,26.4,23.0,30.41,SSE,165,3.0,-999.0,88,-99.99,,,0.00,7,weatherlink.com 1.10,2013-11-11 21:06:00,
2013-11-11 15:21:00,26.1,23.0,30.42,South,178,0.0,-999.0,88,-99.99,,,0.00,9,weatherlink.com 1.10,2013-11-11 21:21:00,
2013-11-11 15:36:00,26.0,23.0,30.42,South,188,6.0,-999.0,88,-99.99,,,0.00,5,weatherlink.com 1.10,2013-11-11 21:36:00,
2013-11-11 15:51:00,26.0,23.0,30.43,South,169,0.0,-999.0,88,-99.99,,,0.00,7,weatherlink.com 1.10,2013-11-11 21:51:00,
2013-11-11 16:06:00,26.0,23.0,30.43,SSE,165,0.0,-999.0,88,-99.99,,,0.00,0,weatherlink.com 1.10,2013-11-11 22:06:00,
2013-11-11 16:29:00,26.6,22.0,30.44,South,177,4.0,-999.0,82,-99.99,,,0.00,0,weatherlink.com 1.10,2013-11-11 22:29:00,
2013-11-11 16:36:00,26.6,21.0,30.45,SSE,161,6.0,-999.0,80,-99.99,,,0.00,0,weatherlink.com 1.10,2013-11-11 22:36:00,
2013-11-11 16:51:00,26.4,20.0,30.45,South,171,8.0,-999.0,78,-99.99,,,0.00,0,weatherlink.com 1.10,2013-11-11 22:51:00,
2013-11-11 17:06:00,26.3,20.0,30.46,SSE,162,0.0,-999.0,77,-99.99,,,0.00,0,weatherlink.com 1.10,2013-11-11 23:06:00,
2013-11-11 17:21:00,26.3,20.0,30.48,SSE,155,4.0,-999.0,77,-99.99,,,0.00,0,weatherlink.com 1.10,2013-11-11 23:21:00,
2013-11-11 17:51:00,25.8,19.0,30.50,SSE,165,4.0,-999.0,75,-99.99,,,0.00,0,weatherlink.com 1.10,2013-11-11 23:51:00,
2013-11-11 18:06:00,25.6,19.0,30.51,South,178,3.0,-999.0,75,-99.99,,,0.00,0,weatherlink.com 1.10,2013-11-12 00:06:00,
2013-11-11 18:21:00,25.3,18.0,30.52,South,173,4.0,-999.0,75,-99.99,,,0.00,0,weatherlink.com 1.10,2013-11-12 00:21:00,
2013-11-11 18:36:00,24.8,18.0,30.54,South,186,2.0,-999.0,74,-99.99,,,0.00,0,weatherlink.com 1.10,2013-11-12 00:36:00,
2013-11-11 18:51:00,24.4,17.0,30.54,SSE,165,4.0,-999.0,73,-99.99,,,0.00,0,weatherlink.com 1.10,2013-11-12 00:51:00,
2013-11-11 19:06:00,24.2,17.0,30.55,South,175,7.0,-999.0,74,-99.99,,,0.00,0,weatherlink.com 1.10,2013-11-12 01:06:00,
2013-11-11 19:21:00,24.1,17.0,30.56,SSE,155,9.0,-999.0,73,-99.99,,,0.00,0,weatherlink.com 1.10,2013-11-12 01:21:00,
2013-11-11 19:36:00,23.9,16.0,30.57,South,186,5.0,-999.0,73,-99.99,,,0.00,0,weatherlink.com 1.10,2013-11-12 01:36:00,
2013-11-11 19:59:00,23.8,16.0,30.58,SSE,165,4.0,-999.0,71,-99.99,,,0.00,0,weatherlink.com 1.10,2013-11-12 01:59:00,
2013-11-11 20:06:00,23.6,15.0,30.59,South,183,7.0,-999.0,71,-99.99,,,0.00,0,weatherlink.com 1.10,2013-11-12 02:06:00,
2013-11-11 20:21:00,23.3,16.0,30.59,South,176,9.0,-999.0,72,-99.99,,,0.00,0,weatherlink.com 1.10,2013-11-12 02:21:00,
2013-11-11 20:36:00,23.0,15.0,30.60,SSE,161,5.0,-999.0,72,-99.99,,,0.00,0,weatherlink.com 1.10,2013-11-12 02:36:00,
2013-11-11 20:51:00,22.5,15.0,30.61,SSE,159,8.0,-999.0,72,-99.99,,,0.00,0,weatherlink.com 1.10,2013-11-12 02:51:00,
2013-11-11 21:08:00,22.1,14.0,30.63,South,186,3.0,-999.0,72,-99.99,,,0.00,0,weatherlink.com 1.10,2013-11-12 03:08:00,
2013-11-11 21:21:00,21.6,14.0,30.64,South,190,5.0,-999.0,72,-99.99,,,0.00,0,weatherlink.com 1.10,2013-11-12 03:21:00,
2013-11-11 21:36:00,21.1,13.0,30.65,SSE,168,3.0,-999.0,71,-99.99,,,0.00,0,weatherlink.com 1.10,2013-11-12 03:36:00,
2013-11-11 21:52:00,20.6,13.0,30.66,South,172,1.0,-999.0,72,-99.99,,,0.00,0,weatherlink.com 1.10,2013-11-12 03:52:00,
2013-11-11 22:07:00,20.2,13.0,30.66,South,178,0.0,-999.0,72,-99.99,,,0.00,0,weatherlink.com 1.10,2013-11-12 04:07:00,
2013-11-11 22:22:00,19.9,12.0,30.67,South,175,0.0,-999.0,72,-99.99,,,0.00,0,weatherlink.com 1.10,2013-11-12 04:22:00,
2013-11-11 22:37:00,19.5,12.0,30.68,South,175,7.0,-999.0,72,-99.99,,,0.00,0,weatherlink.com 1.10,2013-11-12 04:37:00,
2013-11-11 22:52:00,19.2,12.0,30.68,South,171,2.0,-999.0,72,-99.99,,,0.00,0,weatherlink.com 1.10,2013-11-12 04:52:00,
2013-11-11 23:07:00,19.1,11.0,30.69,South,173,2.0,-999.0,72,-99.99,,,0.00,0,weatherlink.com 1.10,2013-11-12 05:07:00,
2013-11-11 23:31:00,18.8,11.0,30.70,SSE,161,2.0,-999.0,71,-99.99,,,0.00,0,weatherlink.com 1.10,2013-11-12 05:31:00,
2013-11-11 23:37:00,18.6,11.0,30.70,South,175,2.0,-999.0,71,-99.99,,,0.00,0,weatherlink.com 1.10,2013-11-12 05:37:00,
2013-11-11 23:52:00,18.4,10.0,30.71,South,177,3.0,-999.0,71,-99.99,,,0.00,0,weatherlink.com 1.10,2013-11-12 05:52:00,